Weather History for Indianapolis, IN

Change the Weather History Date:

Tuesday, July 16, 2013

  Actual Average (KEYE) Record (KEYE)
Temperature  
Mean Temperature 78 °F 75 °F  
Max Temperature 89 °F 84 °F 96 °F (2012)
Min Temperature 68 °F 67 °F 61 °F (2000)
Degree Days  
Heating Degree Days 0 0  
Month to date heating degree days 0  
Since 1 June heating degree days 14  
Since 1 July heating degree days 0  
Cooling Degree Days 14 10  
Month to date cooling degree days 170  
Year to date cooling degree days 488  
Since 1 June cooling degree days 404  
Growing Degree Days 28 (Base 50)    
Moisture  
Dew Point 69 °F    
Average Humidity 72    
Maximum Humidity 89    
Minimum Humidity 44    
Precipitation  
Precipitation 0.00 in 0.17 in 2.02 in (2005)
Month to date precipitation 2.44  
Year to date precipitation 23.64  
Sea Level Pressure  
Sea Level Pressure 30.33 in    
Wind  
Wind Speed 1 mph (North)    
Max Wind Speed 6 mph    
Max Gust Speed -    
Visibility 10 miles    
Events      
T = Trace of Precipitation, MM = Missing Value Source: NWS Daily Summary

Daily Weather History Graph

Daily Weather History Graph

Search for Another Location

Airport:

Trip Planner

Search our weather history database for the weather conditions in past years. The results will help you decide how hot, cold, wet, or windy it might be!

Date:

Astronomy

Jul. 16, 2013 Rise Set
Actual Time 6:29 AM EDT 9:12 PM EDT
Civil Twilight 5:57 AM EDT 9:43 PM EDT
Nautical Twilight 5:18 AM EDT 10:23 PM EDT
Astronomical Twilight 4:32 AM EDT 11:08 PM EDT
Moon 2:53 PM EDT (7/16) 12:59 AM EDT (7/16)
Length of Visible Light 15h 45m
Length of Day
14h 42m
First Quarter, 56% of the Moon is Illuminated
Jul 16
First Quarter
Jul 22
Full
Jul 29
Last Quarter
Aug 6
New
Aug 14
First Quarter

Hourly Weather History & Observations

Time (EDT) Temp. Heat Index Dew Point Humidity Pressure Visibility Wind Dir Wind Speed Gust Speed Precip Events Conditions
12:15 AM 72.9 °F - 68.2 °F 85% 30.31 in 10.0 mi Calm Calm - N/A   Clear
12:35 AM 72.3 °F - 67.5 °F 85% 30.31 in 10.0 mi Calm Calm - N/A   Clear
12:55 AM 72.0 °F - 67.5 °F 86% 30.31 in 10.0 mi Calm Calm - N/A   Clear
1:15 AM 71.6 °F - 67.1 °F 86% 30.31 in 10.0 mi Calm Calm - N/A   Clear
1:35 AM 71.4 °F - 67.1 °F 86% 30.31 in 10.0 mi Calm Calm - N/A   Clear
1:55 AM 70.9 °F - 66.6 °F 86% 30.31 in 10.0 mi Calm Calm - N/A   Clear
2:15 AM 70.7 °F - 66.7 °F 87% 30.31 in 10.0 mi Calm Calm - N/A   Clear
2:35 AM 70.3 °F - 66.2 °F 87% 30.31 in 10.0 mi Calm Calm - N/A   Clear
2:55 AM 70.5 °F - 66.4 °F 87% 30.31 in 10.0 mi Calm Calm - N/A   Clear
3:15 AM 70.2 °F - 66.2 °F 87% 30.32 in 7.0 mi Calm Calm - N/A   Clear
3:35 AM 69.4 °F - 65.5 °F 87% 30.31 in 10.0 mi Calm Calm - N/A   Clear
3:55 AM 69.8 °F - 65.8 °F 87% 30.31 in 10.0 mi Calm Calm - N/A   Clear
4:15 AM 69.3 °F - 65.5 °F 88% 30.31 in 10.0 mi Calm Calm - N/A   Clear
4:35 AM 69.3 °F - 65.7 °F 88% 30.31 in 10.0 mi Calm Calm - N/A   Clear
4:55 AM 69.4 °F - 65.8 °F 88% 30.31 in 7.0 mi Calm Calm - N/A   Clear
5:15 AM 68.9 °F - 65.3 °F 88% 30.31 in 7.0 mi Calm Calm - N/A   Clear
5:35 AM 68.5 °F - 64.9 °F 88% 30.31 in 10.0 mi Calm Calm - N/A   Clear
5:55 AM 68.9 °F - 65.3 °F 88% 30.32 in 7.0 mi Calm Calm - N/A   Clear
6:15 AM 68.7 °F - 65.1 °F 88% 30.32 in 7.0 mi Calm Calm - N/A   Clear
6:35 AM 68.9 °F - 65.3 °F 88% 30.34 in 7.0 mi Calm Calm - N/A   Clear
6:55 AM 68.7 °F - 65.1 °F 88% 30.34 in 7.0 mi Calm Calm - N/A   Clear
7:15 AM 69.6 °F - 66.2 °F 89% 30.34 in 7.0 mi Calm Calm - N/A   Clear
7:35 AM 71.1 °F - 67.3 °F 88% 30.34 in 7.0 mi Calm Calm - N/A   Clear
7:55 AM 73.2 °F - 69.1 °F 87% 30.35 in 7.0 mi Calm Calm - N/A   Clear
8:15 AM 75.9 °F - 69.3 °F 80% 30.36 in 10.0 mi Calm Calm - N/A   Clear
8:35 AM 77.9 °F - 70.5 °F 78% 30.36 in 10.0 mi Calm Calm - N/A   Clear
8:55 AM 79.7 °F - 68.9 °F 69% 30.36 in 10.0 mi Calm Calm - N/A   Clear
9:15 AM 81.0 °F 84.6 °F 70.2 °F 70% 30.37 in 10.0 mi Calm Calm - N/A   Clear
9:35 AM 81.9 °F 85.2 °F 69.3 °F 65% 30.37 in 10.0 mi Calm Calm - N/A   Clear
9:55 AM 82.6 °F 85.9 °F 68.7 °F 63% 30.37 in 10.0 mi Calm Calm - N/A   Clear
10:15 AM 83.7 °F 87.5 °F 69.6 °F 62% 30.37 in 10.0 mi Calm Calm - N/A   Clear
10:35 AM 84.4 °F 88.7 °F 70.0 °F 62% 30.37 in 10.0 mi Calm Calm - N/A   Clear
10:55 AM 84.7 °F 88.2 °F 68.7 °F 58% 30.36 in 10.0 mi Calm Calm - N/A   Clear
11:15 AM 85.3 °F 88.5 °F 68.0 °F 56% 30.36 in 10.0 mi Calm Calm - N/A   Clear
11:55 AM 85.3 °F 88.8 °F 68.4 °F 57% 30.36 in 10.0 mi NW 3.5 mph - N/A   Mostly Cloudy
12:15 PM 86.5 °F 90.7 °F 69.3 °F 56% 30.36 in 10.0 mi Calm Calm - N/A   Scattered Clouds
12:35 PM 86.2 °F 90.0 °F 68.7 °F 56% 30.36 in 10.0 mi Calm Calm - N/A   Mostly Cloudy
12:55 PM 85.8 °F 88.8 °F 67.3 °F 54% 30.35 in 10.0 mi NW 3.5 mph - N/A   Overcast
1:15 PM 86.9 °F 87.5 °F 62.8 °F 44% 30.35 in 10.0 mi Calm Calm - N/A   Mostly Cloudy
1:35 PM 87.6 °F 92.3 °F 69.8 °F 55% 30.35 in 10.0 mi NNE 5.8 mph - N/A   Mostly Cloudy
1:55 PM 86.9 °F 91.0 °F 68.9 °F 55% 30.34 in 10.0 mi NNE 3.5 mph - N/A   Mostly Cloudy
2:15 PM 87.8 °F 92.2 °F 69.1 °F 54% 30.34 in 10.0 mi NNW 4.6 mph - N/A   Scattered Clouds
2:35 PM 86.2 °F 89.7 °F 68.5 °F 55% 30.34 in 10.0 mi NW 4.6 mph - N/A   Scattered Clouds
2:55 PM 87.4 °F 91.5 °F 68.9 °F 54% 30.34 in 10.0 mi NW 4.6 mph - N/A   Mostly Cloudy
3:15 PM 88.0 °F 92.1 °F 68.9 °F 53% 30.33 in 10.0 mi NNW 3.5 mph - N/A   Mostly Cloudy
3:35 PM 88.2 °F 92.5 °F 68.9 °F 53% 30.33 in 10.0 mi NNW 5.8 mph - N/A   Scattered Clouds
4:55 PM 89.6 °F 93.0 °F 67.8 °F 48% 30.32 in 10.0 mi NNW 5.8 mph - N/A   Scattered Clouds
5:15 PM 89.2 °F 92.4 °F 67.1 °F 48% 30.31 in 10.0 mi North 5.8 mph - N/A   Mostly Cloudy
5:35 PM 88.7 °F 92.6 °F 68.5 °F 51% 30.31 in 10.0 mi North 3.5 mph - N/A   Mostly Cloudy
5:55 PM 88.9 °F 92.2 °F 67.5 °F 49% 30.31 in 10.0 mi North 4.6 mph - N/A   Scattered Clouds
6:15 PM 88.7 °F 91.1 °F 66.4 °F 47% 30.32 in 10.0 mi North 3.5 mph - N/A   Scattered Clouds
6:35 PM 88.0 °F 91.8 °F 68.4 °F 52% 30.31 in 10.0 mi North 3.5 mph - N/A   Mostly Cloudy
6:55 PM 87.8 °F 91.8 °F 68.9 °F 53% 30.31 in 10.0 mi North 3.5 mph - N/A   Overcast
7:15 PM 86.7 °F 92.1 °F 71.1 °F 59% 30.31 in 10.0 mi NNE 3.5 mph - N/A   Mostly Cloudy
7:35 PM 86.5 °F 92.5 °F 71.4 °F 61% 30.31 in 10.0 mi NE 3.5 mph - N/A   Scattered Clouds
7:55 PM 86.2 °F 91.8 °F 71.2 °F 61% 30.31 in 10.0 mi Calm Calm - N/A   Clear
8:15 PM 85.3 °F 91.1 °F 72.0 °F 64% 30.31 in 10.0 mi Calm Calm - N/A   Mostly Cloudy
8:35 PM 84.4 °F 90.3 °F 72.5 °F 67% 30.31 in 10.0 mi Calm Calm - N/A   Scattered Clouds
8:55 PM 83.5 °F 89.7 °F 73.0 °F 71% 30.31 in 10.0 mi Calm Calm - N/A   Clear
9:15 PM 81.1 °F 86.6 °F 74.1 °F 79% 30.31 in 10.0 mi Calm Calm - N/A   Clear
9:35 PM 80.2 °F 84.7 °F 73.4 °F 80% 30.31 in 10.0 mi Calm Calm - N/A   Scattered Clouds
9:55 PM 79.7 °F - 73.6 °F 81% 30.32 in 10.0 mi Calm Calm - N/A   Overcast
10:15 PM 78.8 °F - 73.2 °F 83% 30.33 in 10.0 mi Calm Calm - N/A   Mostly Cloudy
10:35 PM 78.8 °F - 72.7 °F 81% 30.33 in 10.0 mi Calm Calm - N/A   Mostly Cloudy
10:55 PM 78.1 °F - 72.5 °F 83% 30.33 in 10.0 mi Calm Calm - N/A   Scattered Clouds
11:15 PM 77.0 °F - 71.6 °F 83% 30.33 in 10.0 mi Calm Calm - N/A   Clear
11:35 PM 76.3 °F - 71.1 °F 84% 30.33 in 10.0 mi Calm Calm - N/A   Clear
11:55 PM 75.6 °F - 70.9 °F 85% 30.33 in 10.0 mi Calm Calm - N/A   Clear